Regional Weather Roundup
Issued by NWS

Home | Current Version | Previous Version | Text Only | Print | Product List | Glossary Off
Versions: 1 2 3 4 5 6 7 8 9 10 11 12 13 14 15 16 17 18 19 20 21 22 23 24 25 26 27 28 29 30 31 32 33 34 35 36 37 38 39 40 41 42 43 44 45 46 47 48 49 50

000
ASUS45 KABQ 231601
RWRNM
NEW MEXICO REGIONAL WEATHER ROUNDUP
NATIONAL WEATHER SERVICE ALBUQUERQUE NM
900 AM MST FRI FEB 23 2018

NOTE: "FAIR" MEANS FEW OR NO CLOUDS BELOW 12,000 FEET AGL WITH NO
       SIGNIFICANT WEATHER OR OBSTRUCTIONS TO VISION.

      THIS PRODUCT IS RELEASED AS TWO VERSIONS.  ONE VERSION NEAR
      THE TOP OF THE HOUR CONTAINING PRELIMINARY DATA FROM ALBUQUERQUE
      AND OTHER STATIONS.  A FINAL VERSION WITH ADDITIONAL DATA IS
      ISSUED ABOUT 10 MINUTES AFTER THE HOUR.

NMZ501-503-504-510>518-231700-
NORTHWEST PLATEAU/NORTHCENTRAL MOUNTAINS

CITY           SKY/WX    TMP DP  RH WIND       PRES   REMARKS
FARMINGTON     FAIR      28  14  55 E9        30.04S WCI  19
LOS ALAMOS     FAIR      24  15  67 CALM      30.06S
SANTA FE       FAIR      28  17  63 N14       30.06R WCI  17
TAOS           FAIR      23  14  68 S3        30.09S
ANGEL FIRE     FAIR      19  17  89 S3        30.03S

$$
NMZ402-403-502-505>509-231700-
WESTCENTRAL MOUNTAINS/SOUTHWEST MOUNTAINS

CITY           SKY/WX    TMP DP  RH WIND       PRES   REMARKS
GALLUP         FAIR      29  15  56 S6        30.02F WCI  23
GRANTS         FAIR      23  12  62 N8        30.07S WCI  14
SILVER CITY    FAIR      43  18  36 CALM      30.12S

$$
NMZ407-409-411-412-231700-
SOUTHERN DESERTS

CITY           SKY/WX    TMP DP  RH WIND       PRES   REMARKS
DEMING         FAIR      40  25  55 SW3       30.12S
LAS CRUCES     FAIR      47  20  34 SW5       30.12S
HOLLOMAN AFB   FAIR      47  24  40 SE13      30.13S
ALAMOGORDO     FAIR      46  28  49 S7        30.12R
T OR C         FAIR      44  20  38 CALM      30.07S

$$
NMZ519>523-231700-
CENTRAL VALLEYS/CENTRAL HIGHLANDS

CITY           SKY/WX    TMP DP  RH WIND       PRES   REMARKS
ALBUQUERQUE    FAIR      32  17  54 N6        30.08R WCI  26
DOUBLE EAGLE   SUNNY     32  16  51 NE7       30.08R WCI  26
MORIARTY ARPT  FAIR      37  17  43 SE3       30.08S
CLINES CORNERS NOT AVBL
BELEN          FAIR      33  16  49 NE5       30.08S WCI  28
SOCORRO        FAIR      42  16  35 S9        30.08S

$$
NMZ524>526-539-540-231700-
SOUTHCENTRAL MOUNTAINS

CITY           SKY/WX    TMP DP  RH WIND       PRES   REMARKS
RUIDOSO        NOT AVBL

$$
NMZ527>531-231700-
NORTHEAST HIGHLANDS/NORTHEAST PLAINS

CITY           SKY/WX    TMP DP  RH WIND       PRES   REMARKS
LAS VEGAS      FAIR      37   7  28 S20       30.04S WCI  27
RATON          FAIR      28  10  46 NE6       30.03R WCI  22
CLAYTON        FAIR      36  15  42 SE7       30.07R WCI  30

$$
NMZ532>537-231700-
EASTCENTRAL PLAINS

CITY           SKY/WX    TMP DP  RH WIND       PRES   REMARKS
SANTA ROSA     FAIR      36  13  39 SW5       30.08F WCI  32
TUCUMCARI      FAIR      47  18  31 W9        30.06S
CANNON AFB     FAIR      49  26  42 W8        30.09F
CLOVIS AIRPORT NOT AVBL

$$
NMZ028-029-538-231700-
SOUTHEAST PLAINS

CITY           SKY/WX    TMP DP  RH WIND       PRES   REMARKS
ROSWELL        FAIR      40  29  64 CALM      30.08F
ARTESIA        FAIR      37  32  81 CALM      30.10S
CARLSBAD       FAIR      47  32  56 SE6       30.09S
HOBBS          SUNNY     54  32  43 VRB3      30.09S


$$




USA.gov is the U.S. government's official web portal to all federal, state and local government web resources and services.